2017-008AU

Last updated on Tue Feb 28 2017 00:15:03 GMT+0000 (Coordinated Universal Time)

1 41990U 17008AU 17058.89613630 .00001395 00000-0 64759-4 0 9999 2 41990 97.5110 120.5055 0007049 208.9465 151.1371 15.21693726 1237
UTC large
Height (km)
Speed (km/s)
/
Latitude / Longitude
Inclination (degrees)
Orbital Period (minutes)
Azimuth
Elevation
Range (km)
Doppler Factor

Next 0 passes for location: London (51.5072 / 0.1276)

Sorry there are no passes over London.